H1 CPF 2 NER 2024 2 22 9 053 01 glonass135 H2 1600801 9135 41330 2024 2 22 0 0 0 2024 2 25 23 45 0 900 1 1 0 0 0 1 H9 10 0 60362 0.00000 0 22837183.603 7958755.847 -8050669.951 10 0 60362 900.00000 0 21697496.929 7609353.353 -10999906.009 10 0 60362 1800.00000 0 20186093.547 7318581.455 -13734976.923 10 0 60362 2700.00000 0 18337024.757 7137491.224 -16202651.468 10 0 60362 3600.00000 0 16195741.724 7110248.396 -18354926.231 10 0 60362 4500.00000 0 13817356.076 7272078.066 -20149963.023 10 0 60362 5400.00000 0 11264509.033 7647600.644 -21552903.037 10 0 60362 6300.00000 0 8604938.530 8249629.891 -22536542.039 10 0 60362 7200.00000 0 5908846.368 9078484.018 -23081853.871 10 0 60362 8100.00000 0 3246175.362 10121838.944 -23178352.752 10 0 60362 9000.00000 0 683909.813 11355129.788 -22824288.109 10 0 60362 9900.00000 0 -1716488.686 12742483.546 -22026668.938 10 0 60362 10800.00000 0 -3901404.264 14238143.566 -20801118.006 10 0 60362 11700.00000 0 -5827053.097 15788325.893 -19171559.348 10 0 60362 12600.00000 0 -7461051.852 17333429.469 -17169745.657 10 0 60362 13500.00000 0 -8783504.703 18810507.488 -14834635.103 10 0 60362 14400.00000 0 -9787565.520 20155896.355 -12211629.901 10 0 60362 15300.00000 0 -10479453.806 21307892.109 -9351691.586 10 0 60362 16200.00000 0 -10877925.706 22209362.315 -6310350.198 10 0 60362 17100.00000 0 -11013224.166 22810184.092 -3146626.652 10 0 60362 18000.00000 0 -10925553.935 23069406.315 78110.795 10 0 60362 18900.00000 0 -10663146.886 22957045.531 3301333.828 10 0 60362 19800.00000 0 -10280000.088 22455440.521 6460562.221 10 0 60362 20700.00000 0 -9833382.525 21560108.859 9494569.548 10 0 60362 21600.00000 0 -9381215.875 20280069.570 12344563.396 10 0 60362 22500.00000 0 -8979439.743 18637618.221 14955317.684 10 0 60362 23400.00000 0 -8679472.216 16667563.439 17276235.649 10 0 60362 24300.00000 0 -8525872.445 14415956.112 19262323.616 10 0 60362 25200.00000 0 -8554303.388 11938363.339 20875057.433 10 0 60362 26100.00000 0 -8789880.342 9297757.943 22083125.474 10 0 60362 27000.00000 0 -9245974.807 6562110.023 22863034.438 10 0 60362 27900.00000 0 -9923524.425 3801779.212 23199566.631 10 0 60362 28800.00000 0 -10810878.793 1086814.561 23086079.987 10 0 60362 29700.00000 0 -11884188.789 -1515727.222 22524644.850 10 0 60362 30600.00000 0 -13108324.566 -3944335.035 21526014.307 10 0 60362 31500.00000 0 -14438285.310 -6145363.001 20109427.826 10 0 60362 32400.00000 0 -15821043.233 -8075020.706 18302250.888 10 0 60362 33300.00000 0 -17197745.900 -9700951.638 16139456.380 10 0 60362 34200.00000 0 -18506185.501 -11003334.127 13662956.548 10 0 60362 35100.00000 0 -19683432.033 -11975458.916 10920797.375 10 0 60362 36000.00000 0 -20668519.855 -12623759.172 7966230.149 10 0 60362 36900.00000 0 -21405074.077 -12967291.657 4856677.760 10 0 60362 37800.00000 0 -21843765.484 -13036691.206 1652615.771 10 0 60362 38700.00000 0 -21944489.126 -12872642.882 -1583609.696 10 0 60362 39600.00000 0 -21678173.296 -12523937.026 -4789003.467 10 0 60362 40500.00000 0 -21028141.164 -12045190.440 -7901157.434 10 0 60362 41400.00000 0 -19990966.190 -11494331.204 -10859476.033 10 0 60362 42300.00000 0 -18576784.083 -10929954.960 -13606365.969 10 0 60362 43200.00000 0 -16809047.253 -10408665.855 -16088365.896 10 0 60362 44100.00000 0 -14723731.472 -9982515.938 -18257193.231 10 0 60362 45000.00000 0 -12368027.806 -9696652.377 -20070687.085 10 0 60362 45900.00000 0 -9798574.660 -9587272.734 -21493628.787 10 0 60362 46800.00000 0 -7079304.003 -9679975.092 -22498424.156 10 0 60362 47700.00000 0 -4278992.006 -9988572.817 -23065634.674 10 0 60362 48600.00000 0 -1468616.319 -10514423.785 -23184347.884 10 0 60362 49500.00000 0 1281369.974 -11246302.002 -22852380.587 10 0 60362 50400.00000 0 3903734.575 -12160816.554 -22076311.678 10 0 60362 51300.00000 0 6337020.876 -13223359.782 -20871344.759 10 0 60362 52200.00000 0 8527856.226 -14389544.349 -19261003.814 10 0 60362 53100.00000 0 10432918.815 -15607068.415 -17276668.383 10 0 60362 54000.00000 0 12020482.854 -16817930.272 -14956957.623 10 0 60362 54900.00000 0 13271479.426 -17960899.238 -12346975.441 10 0 60362 55800.00000 0 14180030.622 -18974138.933 -9497431.506 10 0 60362 56700.00000 0 14753436.607 -19797872.743 -6463655.270 10 0 60362 57600.00000 0 15011618.022 -20376979.612 -3304522.161 10 0 60362 58500.00000 0 14986038.826 -20663411.196 -81312.774 10 0 60362 59400.00000 0 14718156.278 -20618328.988 3143472.811 10 0 60362 60300.00000 0 14257464.393 -20213871.773 6307322.748 10 0 60362 61200.00000 0 13659213.991 -19434479.238 9348919.856 10 0 60362 62100.00000 0 12981905.803 -18277716.124 12209323.713 10 0 60362 63000.00000 0 12284662.300 -16754562.088 14833105.930 10 0 60362 63900.00000 0 11624588.773 -14889154.661 17169417.118 10 0 60362 64800.00000 0 11054234.406 -12717995.295 19172965.573 10 0 60362 65700.00000 0 10619259.717 -10288650.594 20804889.446 10 0 60362 66600.00000 0 10356408.087 -7658001.645 22033506.205 10 0 60362 67500.00000 0 10291866.359 -4890112.840 22834925.483 10 0 60362 68400.00000 0 10440083.378 -2053807.195 23193513.899 10 0 60362 69300.00000 0 10803096.403 779952.712 23102202.952 10 0 60362 70200.00000 0 11370394.328 3540771.014 22562633.898 10 0 60362 71100.00000 0 12119324.435 6161501.111 21585136.268 10 0 60362 72000.00000 0 13016026.845 8580794.225 20188539.615 10 0 60362 72900.00000 0 14016858.734 10745408.897 18399821.070 10 0 60362 73800.00000 0 15070249.830 12612185.901 16253594.277 10 0 60362 74700.00000 0 16118912.253 14149606.470 13791448.411 10 0 60362 75600.00000 0 17102312.487 15338868.857 11061148.965 10 0 60362 76500.00000 0 17959301.690 16174438.049 8115714.905 10 0 60362 77400.00000 0 18630793.344 16664045.599 5012389.697 10 0 60362 78300.00000 0 19062374.621 16828139.530 1811526.045 10 0 60362 79200.00000 0 19206740.039 16698807.633 -1424593.680 10 0 60362 80100.00000 0 19025843.421 16318220.131 -4632977.533 10 0 60362 81000.00000 0 18492675.498 15736658.101 -7751159.967 10 0 60362 81900.00000 0 17592590.649 15010212.071 -10718428.405 10 0 60362 82800.00000 0 16324125.441 14198249.312 -13477015.224 10 0 60362 83700.00000 0 14699273.083 13360758.098 -15973230.923 10 0 60362 84600.00000 0 12743201.358 12555682.482 -18158515.461 10 0 60362 85500.00000 0 10493425.271 11836361.264 -19990386.733 10 0 60363 0.00000 0 7998468.986 11249180.148 -21433267.356 10 0 60363 900.00000 0 5316071.596 10831536.334 -22459174.534 10 0 60363 1800.00000 0 2511015.082 10610202.199 -23048258.110 10 0 60363 2700.00000 0 -347339.317 10600155.726 -23189179.581 10 0 60363 3600.00000 0 -3187700.489 10803927.198 -22879323.472 10 0 60363 4500.00000 0 -5939573.810 11211488.589 -22124838.578 10 0 60363 5400.00000 0 -8535951.372 11800689.520 -20940508.938 10 0 60363 6300.00000 0 -10915854.979 12538220.620 -19349457.654 10 0 60363 7200.00000 0 -13026627.165 13381063.000 -17382689.859 10 0 60363 8100.00000 0 -14825876.198 14278362.245 -15078484.058 10 0 60363 9000.00000 0 -16282995.634 15173647.623 -12481643.878 10 0 60363 9900.00000 0 -17380196.651 16007302.790 -9642624.908 10 0 60363 10800.00000 0 -18113011.905 16719183.857 -6616553.629 10 0 60363 11700.00000 0 -18490251.548 17251274.574 -3462157.480 10 0 60363 12600.00000 0 -18533414.920 17550266.864 -240626.839 10 0 60363 13500.00000 0 -18275584.124 17569958.179 2985569.038 10 0 60363 14400.00000 0 -17759847.123 17273364.853 6153889.277 10 0 60363 15300.00000 0 -17037317.606 16634462.575 9202928.536 10 0 60363 16200.00000 0 -16164835.457 15639480.724 12073600.945 10 0 60363 17100.00000 0 -15202444.764 14287695.918 14710278.319 10 0 60363 18000.00000 0 -14210755.399 12591691.008 17061861.062 10 0 60363 18900.00000 0 -13248298.741 10577067.878 19082761.722 10 0 60363 19800.00000 0 -12368988.151 8281624.961 20733782.851 10 0 60363 20700.00000 0 -11619790.324 5754032.484 21982872.875 10 0 60363 21600.00000 0 -11038704.697 3052059.047 22805745.948 10 0 60363 22500.00000 0 -10653135.364 240421.576 23186354.263 10 0 60363 23400.00000 0 -10478723.635 -2611653.749 23117203.784 10 0 60363 24300.00000 0 -10518690.366 -5433060.046 22599507.187 10 0 60363 25200.00000 0 -10763716.157 -8153520.238 21643170.520 10 0 60363 26100.00000 0 -11192365.167 -10706268.265 20266613.051 10 0 60363 27000.00000 0 -11772035.710 -13030590.595 18496422.717 10 0 60363 27900.00000 0 -12460398.725 -15074123.018 16366852.628 10 0 60363 28800.00000 0 -13207264.520 -16794807.313 13919167.164 10 0 60363 29700.00000 0 -13956799.948 -18162426.184 11200849.194 10 0 60363 30600.00000 0 -14650002.919 -19159652.101 8264682.930 10 0 60363 31500.00000 0 -15227329.822 -19782565.903 5167729.692 10 0 60363 32400.00000 0 -15631364.368 -20040623.125 1970216.384 10 0 60363 33300.00000 0 -15809414.159 -19956069.454 -1265641.443 10 0 60363 34200.00000 0 -15715923.856 -19562830.052 -4476858.274 10 0 60363 35100.00000 0 -15314601.331 -18904920.100 -7600914.414 10 0 60363 36000.00000 0 -14580165.389 -18034444.485 -10576983.562 10 0 60363 36900.00000 0 -13499639.552 -17009272.082 -13347127.061 10 0 60363 37800.00000 0 -12073135.901 -15890484.036 -15857430.439 10 0 60363 38700.00000 0 -10314094.745 -14739704.955 -18059059.200 10 0 60363 39600.00000 0 -8248969.062 -13616430.707 -19909212.713 10 0 60363 40500.00000 0 -5916366.354 -12575466.387 -21371957.408 10 0 60363 41400.00000 0 -3365683.503 -11664582.894 -22418923.151 10 0 60363 42300.00000 0 -655291.506 -10922490.938 -23029849.681 10 0 60363 43200.00000 0 2149654.212 -10377217.440 -23192973.118 10 0 60363 44100.00000 0 4979686.756 -10044951.943 -22905245.799 10 0 60363 45000.00000 0 7763681.213 -9929410.628 -22172385.979 10 0 60363 45900.00000 0 10431578.535 -10021743.524 -21008757.202 10 0 60363 46800.00000 0 12917067.178 -10300987.650 -19437080.315 10 0 60363 47700.00000 0 15160111.708 -10735045.847 -17487984.248 10 0 60363 48600.00000 0 17109224.215 -11282149.095 -15199404.650 10 0 60363 49500.00000 0 18723385.192 -11892739.898 -12615842.275 10 0 60363 50400.00000 0 19973535.189 -12511696.740 -9787495.666 10 0 60363 51300.00000 0 20843576.524 -13080805.467 -6769285.030 10 0 60363 52200.00000 0 21330844.750 -13541373.147 -3619786.259 10 0 60363 53100.00000 0 21446031.671 -13836874.100 -400095.792 10 0 60363 54000.00000 0 21212564.558 -13915516.537 2827351.693 10 0 60363 54900.00000 0 20665468.829 -13732621.646 5999989.946 10 0 60363 55800.00000 0 19849762.881 -13252714.904 9056328.892 10 0 60363 56700.00000 0 18818453.168 -12451241.503 11937140.304 10 0 60363 57600.00000 0 17630214.051 -11315833.476 14586598.870 10 0 60363 58500.00000 0 16346849.863 -9847074.858 16953357.001 10 0 60363 59400.00000 0 15030645.466 -8058732.047 18991533.230 10 0 60363 60300.00000 0 13741715.920 -5977438.660 20661595.768 10 0 60363 61200.00000 0 12535465.788 -3641846.720 21931124.797 10 0 60363 62100.00000 0 11460263.836 -1101277.981 22775439.366 10 0 60363 63000.00000 0 10555429.884 1586070.275 23178077.190 10 0 60363 63900.00000 0 9849617.676 4355292.186 23131118.264 10 0 60363 64800.00000 0 9359661.199 7137224.855 22635345.875 10 0 60363 65700.00000 0 9089932.834 9861084.441 21700241.442 10 0 60363 66600.00000 0 9032240.508 12457178.735 20343812.482 10 0 60363 67500.00000 0 9166268.690 14859584.723 18592255.997 10 0 60363 68400.00000 0 9460545.384 17008680.521 16479462.571 10 0 60363 69300.00000 0 9873895.118 18853426.629 14046369.567 10 0 60363 70200.00000 0 10357317.346 20353301.285 11340174.822 10 0 60363 71100.00000 0 10856211.415 21479808.923 8413425.190 10 0 60363 72000.00000 0 11312854.191 22217498.075 5322997.109 10 0 60363 72900.00000 0 11669025.241 22564445.565 2128988.860 10 0 60363 73800.00000 0 11868667.768 22532186.355 -1106453.696 10 0 60363 74700.00000 0 11860471.458 22145091.755 -4320354.316 10 0 60363 75600.00000 0 11600266.491 21439222.431 -7450141.860 10 0 60363 76500.00000 0 11053125.790 20460705.054 -10434878.840 10 0 60363 77400.00000 0 10195084.948 19263701.845 -13216457.844 10 0 60363 78300.00000 0 9014405.615 17908059.639 -15740741.418 10 0 60363 79200.00000 0 7512327.589 16456738.634 -17958622.316 10 0 60363 80100.00000 0 5703276.823 14973130.295 -19826982.830 10 0 60363 81000.00000 0 3614519.726 13518378.202 -21309534.274 10 0 60363 81900.00000 0 1285277.632 12148815.178 -22377520.396 10 0 60363 82800.00000 0 -1234661.833 10913624.625 -23010271.414 10 0 60363 83700.00000 0 -3886778.699 9852824.119 -23195598.526 10 0 60363 84600.00000 0 -6606023.584 8995655.228 -22930022.040 10 0 60363 85500.00000 0 -9323297.937 8359446.184 -22218829.462 10 0 60364 0.00000 0 -11968108.389 7948993.832 -21075963.342 10 0 60364 900.00000 0 -14471286.567 7756489.176 -19523741.003 10 0 60364 1800.00000 0 -16767658.254 7761988.631 -17592413.778 10 0 60364 2700.00000 0 -18798556.290 7934408.999 -15319572.610 10 0 60364 3600.00000 0 -20514069.967 8233003.628 -12749413.238 10 0 60364 4500.00000 0 -21874939.692 8609256.241 -9931874.803 10 0 60364 5400.00000 0 -22854018.837 9009111.900 -6921668.760 10 0 60364 6300.00000 0 -23437243.023 9375450.412 -3777216.917 10 0 60364 7200.00000 0 -23624067.575 9650697.529 -559519.214 10 0 60364 8100.00000 0 -23427356.087 9779463.519 2669026.805 10 0 60364 9000.00000 0 -22872725.890 9711097.774 5845832.066 10 0 60364 9900.00000 0 -21997378.762 9402051.623 8909324.282 10 0 60364 10800.00000 0 -20848466.611 8817949.737 11800135.363 10 0 60364 11700.00000 0 -19481061.040 7935282.703 14462245.295 10 0 60364 12600.00000 0 -17955812.031 6742649.227 16844060.807 10 0 60364 13500.00000 0 -16336393.632 5241495.181 18899408.553 10 0 60364 14400.00000 0 -14686843.161 3446317.568 20588424.315 10 0 60364 15300.00000 0 -13068904.624 1384323.642 21878321.657 10 0 60364 16200.00000 0 -11539486.694 -905442.128 22744025.813 10 0 60364 17100.00000 0 -10148340.696 -3373468.657 23168660.973 10 0 60364 18000.00000 0 -8936054.953 -5961591.226 23143881.741 10 0 60364 18900.00000 0 -7932448.733 -8605173.425 22670042.235 10 0 60364 19800.00000 0 -7155432.613 -11235569.224 21756199.097 10 0 60364 20700.00000 0 -6610382.829 -13782764.474 20419947.590 10 0 60364 21600.00000 0 -6290055.942 -16178089.348 18687092.917 10 0 60364 22500.00000 0 -6175047.705 -18356889.784 16591161.927 10 0 60364 23400.00000 0 -6234777.245 -20261047.097 14172763.426 10 0 60364 24300.00000 0 -6428955.523 -21841240.747 11478808.381 10 0 60364 25200.00000 0 -6709476.434 -23058859.423 8561604.204 10 0 60364 26100.00000 0 -7022650.725 -23887479.806 5477840.145 10 0 60364 27000.00000 0 -7311687.998 -24313850.527 2287483.378 10 0 60364 27900.00000 0 -7519321.117 -24338339.157 -947392.542 10 0 60364 28800.00000 0 -7590460.767 -23974822.954 -4163823.380 10 0 60364 29700.00000 0 -7474766.481 -23250027.871 -7299189.396 10 0 60364 30600.00000 0 -7129023.598 -22202343.688 -10292444.840 10 0 60364 31500.00000 0 -6519223.955 -20880165.706 -13085316.509 10 0 60364 32400.00000 0 -5622260.681 -19339833.611 -15623446.931 10 0 60364 33300.00000 0 -4427163.999 -17643255.149 -17857458.980 10 0 60364 34200.00000 0 -2935824.649 -15855315.675 -19743920.543 10 0 60364 35100.00000 0 -1163173.471 -14041183.336 -21246190.214 10 0 60364 36000.00000 0 863191.184 -12263623.769 -22335127.640 10 0 60364 36900.00000 0 3103913.086 -10580437.324 -22989655.089 10 0 60364 37800.00000 0 5509287.098 -9042126.154 -23197159.948 10 0 60364 38700.00000 0 8021108.827 -7689888.408 -22953731.120 10 0 60364 39600.00000 0 10574887.961 -6554022.554 -22264225.528 10 0 60364 40500.00000 0 13102333.232 -5652807.351 -21142164.203 10 0 60364 41400.00000 0 15534005.779 -4991902.800 -19609460.647 10 0 60364 42300.00000 0 17802030.782 -4564295.455 -17695987.284 10 0 60364 43200.00000 0 19842754.982 -4350788.616 -15438988.759 10 0 60364 44100.00000 0 21599240.023 -4321015.141 -12882353.722 10 0 60364 45000.00000 0 23023488.458 -4434928.818 -10075759.381 10 0 60364 45900.00000 0 24078310.446 -4644710.232 -7073705.454 10 0 60364 46800.00000 0 24738754.195 -4897005.888 -3934456.291 10 0 60364 47700.00000 0 24993041.340 -5135405.453 -718911.688 10 0 60364 48600.00000 0 24842969.153 -5303052.149 2510571.750 10 0 60364 49500.00000 0 24303763.668 -5345275.891 5691385.932 10 0 60364 50400.00000 0 23403390.663 -5212137.950 8761880.034 10 0 60364 51300.00000 0 22181353.947 -4860779.716 11662549.511 10 0 60364 52200.00000 0 20687031.652 -4257476.476 14337182.710 10 0 60364 53100.00000 0 18977620.239 -3379309.501 16733943.322 10 0 60364 54000.00000 0 17115772.102 -2215385.671 18806368.335 10 0 60364 54900.00000 0 15167025.022 -767552.710 20514262.864 10 0 60364 55800.00000 0 13197130.261 949420.983 21824475.181 10 0 60364 56700.00000 0 11269389.974 2908210.839 22711537.599 10 0 60364 57600.00000 0 9442114.142 5069831.388 23158161.255 10 0 60364 58500.00000 0 7766302.244 7385026.827 23155575.409 10 0 60364 59400.00000 0 6283645.537 9796100.939 22703704.624 10 0 60364 60300.00000 0 5024932.702 12239112.149 21811179.957 10 0 60364 61200.00000 0 4008925.017 14646344.126 20495183.194 10 0 60364 62100.00000 0 3241747.864 16948950.603 18781126.135 10 0 60364 63000.00000 0 2716824.042 19079665.374 16702169.932 10 0 60364 63900.00000 0 2415351.797 20975465.081 14298592.573 10 0 60364 64800.00000 0 2307307.676 22580073.839 11617015.628 10 0 60364 65700.00000 0 2352932.029 23846204.697 8709504.297 10 0 60364 66600.00000 0 2504634.517 24737443.493 5632557.712 10 0 60364 67500.00000 0 2709238.764 25229695.289 2446008.884 10 0 60364 68400.00000 0 2910470.625 25312131.661 -788144.084 10 0 60364 69300.00000 0 3051583.772 24987598.308 -4006952.064 10 0 60364 70200.00000 0 3078010.075 24272465.082 -7147749.720 10 0 60364 71100.00000 0 2939921.035 23195924.515 -10149385.850 10 0 60364 72000.00000 0 2594590.208 21798768.598 -12953424.019 10 0 60364 72900.00000 0 2008455.009 20131695.513 -15505288.994 10 0 60364 73800.00000 0 1158789.192 18253218.285 -17755335.713 10 0 60364 74700.00000 0 34914.109 16227264.055 -19659819.299 10 0 60364 75600.00000 0 -1361103.446 14120565.615 -21181746.971 10 0 60364 76500.00000 0 -3014296.989 11999955.278 -22291595.346 10 0 60364 77400.00000 0 -4897196.758 9929674.922 -22967879.528 10 0 60364 78300.00000 0 -6970760.551 7968814.827 -23197563.579 10 0 60364 79200.00000 0 -9185800.282 6168988.037 -22976305.140 10 0 60364 80100.00000 0 -11484844.766 4572336.665 -22308530.289 10 0 60364 81000.00000 0 -13804361.100 3209952.216 -21207337.968 10 0 60364 81900.00000 0 -16077242.171 2100774.376 -19694236.507 10 0 60364 82800.00000 0 -18235456.743 1251012.546 -17798717.914 10 0 60364 83700.00000 0 -20212752.004 654112.377 -15557678.553 10 0 60364 84600.00000 0 -21947296.302 291266.780 -13014697.697 10 0 60364 85500.00000 0 -23384152.302 132448.149 -10219188.085 10 0 60365 0.00000 0 -24477477.893 137916.793 -7225435.302 10 0 60365 900.00000 0 -25192364.108 260140.768 -4091542.940 10 0 60365 1800.00000 0 -25506232.530 446045.149 -878308.113 10 0 60365 2700.00000 0 -25409736.453 639495.168 2351956.317 10 0 60365 3600.00000 0 -24907127.191 783907.993 5536626.030 10 0 60365 4500.00000 0 -24016071.459 824882.653 8613974.418 10 0 60365 5400.00000 0 -22766927.798 712737.039 11524363.164 10 0 60365 6300.00000 0 -21201512.562 404844.935 14211391.538 10 0 60365 7200.00000 0 -19371407.117 -132325.518 16622982.574 10 0 60365 8100.00000 0 -17335876.743 -921557.939 18712385.716 10 0 60365 9000.00000 0 -15159487.655 -1973688.427 20439077.216 10 0 60365 9900.00000 0 -12909520.876 -3286911.975 21769541.486 10 0 60365 10800.00000 0 -10653289.834 -4846624.734 22677918.942 10 0 60365 11700.00000 0 -8455472.462 -6625810.206 23146508.270 10 0 60365 12600.00000 0 -6375567.850 -8585954.871 23166113.585 10 0 60365 13500.00000 0 -4465582.405 -10678456.959 22736229.723 10 0 60365 14400.00000 0 -2768041.010 -12846471.563 21865061.641 10 0 60365 15300.00000 0 -1314405.475 -15027116.993 20569376.825 10 0 60365 16200.00000 0 -123965.788 -17153952.045 18874192.562 10 0 60365 17100.00000 0 796749.730 -19159622.125 16812302.927 10 0 60365 18000.00000 0 1454020.763 -20978564.571 14423653.450 10 0 60365 18900.00000 0 1866435.904 -22549660.459 11754574.421 10 0 60365 19800.00000 0 2063869.096 -23818721.719 8856886.749 10 0 60365 20700.00000 0 2085974.894 -24740708.835 5786897.178 10 0 60365 21600.00000 0 1980266.307 -25281585.112 2604302.147 10 0 60365 22500.00000 0 1799857.053 -25419728.556 -628978.173 10 0 60365 23400.00000 0 1600964.625 -25146840.841 -3850012.323 10 0 60365 24300.00000 0 1440281.083 -24468314.104 -6996091.985 10 0 60365 25200.00000 0 1372324.353 -23403039.540 -10005963.140 10 0 60365 26100.00000 0 1446883.749 -21982665.403 -12821028.769 10 0 60365 27000.00000 0 1706669.468 -20250335.707 -15386498.502 10 0 60365 27900.00000 0 2185266.946 -18258962.942 -17652461.862 10 0 60365 28800.00000 0 2905483.875 -16069107.859 -19574863.573 10 0 60365 29700.00000 0 3878160.719 -13746556.006 -21116361.601 10 0 60365 30600.00000 0 5101495.661 -11359693.128 -22247051.340 10 0 60365 31500.00000 0 6560912.963 -8976789.764 -22945042.184 10 0 60365 32400.00000 0 8229480.606 -6663308.687 -23196875.922 10 0 60365 33300.00000 0 10068859.902 -4479347.371 -22997779.589 10 0 60365 34200.00000 0 12030747.375 -2477321.623 -22351748.694 10 0 60365 35100.00000 0 14058748.653 -699985.917 -21271459.990 10 0 60365 36000.00000 0 16090606.096 821128.420 -19778016.168 10 0 60365 36900.00000 0 18060687.186 2066793.693 -17900527.970 10 0 60365 37800.00000 0 19902629.921 3030641.836 -15675542.235 10 0 60365 38700.00000 0 21552034.956 3719174.682 -13146327.186 10 0 60365 39600.00000 0 22949092.345 4151230.105 -10362028.982 10 0 60365 40500.00000 0 24041033.480 4356928.283 -7376715.967 10 0 60365 41400.00000 0 24784306.153 4376144.054 -4248329.125 10 0 60365 42300.00000 0 25146382.224 4256570.944 -1037559.107 10 0 60365 43200.00000 0 25107122.717 4051459.511 2193328.414 10 0 60365 44100.00000 0 24659643.653 3817126.061 5381696.420 10 0 60365 45000.00000 0 23810646.749 3610337.253 8465745.998 10 0 60365 45900.00000 0 22580201.383 3485681.135 11385708.386 10 0 60365 46800.00000 0 21000987.022 3493035.556 14084996.850 10 0 60365 47700.00000 0 19117027.685 3675240.657 16511296.544 10 0 60365 48600.00000 0 16981970.927 4066073.531 18617571.814 10 0 60365 49500.00000 0 14656982.582 4688610.447 20362972.138 10 0 60365 50400.00000 0 12208344.216 5554045.896 21713619.794 10 0 60365 51300.00000 0 9704852.363 6661018.776 22643264.655 10 0 60365 52200.00000 0 7215126.626 7995475.003 23133793.920 10 0 60365 53100.00000 0 4804937.494 9531073.721 23175587.100 10 0 60365 54000.00000 0 2534663.807 11230121.755 22767709.402 10 0 60365 54900.00000 0 456984.629 13044999.073 21917939.305 10 0 60365 55800.00000 0 -1385099.271 14920017.532 20642629.140 10 0 60365 56700.00000 0 -2959832.542 16793636.936 18966400.356 10 0 60365 57600.00000 0 -4247796.026 18600947.246 16921678.195 10 0 60365 58500.00000 0 -5242475.838 20276314.135 14548073.599 10 0 60365 59400.00000 0 -5950286.996 21756077.634 11891623.116 10 0 60365 60300.00000 0 -6390050.774 22981190.881 9003900.650 10 0 60365 61200.00000 0 -6591947.829 23899687.748 5941017.646 10 0 60365 62100.00000 0 -6595991.523 24468874.766 2762530.926 10 0 60365 63000.00000 0 -6450086.409 24657154.117 -469720.402 10 0 60365 63900.00000 0 -6207754.716 24445399.530 -3692825.714 10 0 60365 64800.00000 0 -5925628.126 23827825.933 -6844036.801 10 0 60365 65700.00000 0 -5660812.364 22812315.246 -9861999.805 10 0 60365 66600.00000 0 -5468237.664 21420183.749 -12687959.896 10 0 60365 67500.00000 0 -5398108.770 19685400.472 -15266914.061 10 0 60365 68400.00000 0 -5493563.857 17653289.261 -17548688.632 10 0 60365 69300.00000 0 -5788642.601 15378769.325 -19488919.833 10 0 60365 70200.00000 0 -6306650.283 12924208.406 -21049917.981 10 0 60365 71100.00000 0 -7058987.684 10356978.966 -22201398.553 10 0 60365 72000.00000 0 -8044496.543 7746819.980 -22921066.229 10 0 60365 72900.00000 0 -9249348.349 5163114.748 -23195041.205 10 0 60365 73800.00000 0 -10647481.207 2672198.132 -23018120.233 10 0 60365 74700.00000 0 -12201566.362 334805.041 -22393868.177 10 0 60365 75600.00000 0 -13864463.744 -1796234.408 -21334539.088 10 0 60365 76500.00000 0 -15581105.473 -3677958.320 -19860829.042 10 0 60365 77400.00000 0 -17290728.382 -5278814.761 -18001466.101 10 0 60365 78300.00000 0 -18929362.126 -6579719.360 -15792645.735 10 0 60365 79200.00000 0 -20432468.850 -7574586.655 -13277322.913 10 0 60365 80100.00000 0 -21737624.062 -8270314.970 -10504374.733 10 0 60365 81000.00000 0 -22787126.709 -8686227.499 -7527649.878 10 0 60365 81900.00000 0 -23530429.428 -8852994.858 -4404923.330 10 0 60365 82800.00000 0 -23926287.411 -8811085.972 -1196776.605 10 0 60365 83700.00000 0 -23944536.185 -8608813.757 2034574.817 10 0 60365 84600.00000 0 -23567424.033 -8300058.875 5226484.253 10 0 60365 85500.00000 0 -22790443.414 -7941768.113 8317083.505 99